Location: Lake_James_State_Park
(35.7270°N, 81.9020°W)
Time: 15:48:39
(UTC-04:00)

Daily predictions for brighter satellites

Satellite Brightness Start Highest point End
(mag) Time Altitude Azimuth Time Altitude Azimuth Time Altitude Azimuth
Cosmos 1782 3.5 20:57:11 10° NNE 21:00:55 35° E 21:04:38 10° SSE
PSLV R/B 3.9 20:57:54 10° WNW 21:01:12 48° SSW 21:04:31 10° SE
Cosmos 1408 4.3 20:59:08 10° SE 21:01:26 16° E 21:03:45 10° NE
Cosmos 2056 Rocket 3.9 21:00:22 10° SSW 21:05:30 68° WNW 21:10:37 10° NNE
Cosmos 1356 Rocket 4.0 21:04:19 10° SSW 21:08:31 65° W 21:12:47 10° N
Atlas Centaur 2 2.1 21:05:58 10° WSW 21:09:20 30° S 21:12:29 10° SE
CZ-4 DEB 3.3 21:10:13 10° SE 21:13:11 39° ENE 21:16:11 10° N
Meteor 2-6 Rocket 4.5 21:07:32 10° N 21:13:22 56° E 21:19:01 10° SSE
Meteor 2-10 Rocket 3.9 21:10:14 10° N 21:16:02 82° W 21:21:36 10° S
Cosmos 1844 Rocket 3.0 21:11:33 10° SSW 21:17:11 73° WNW 21:22:51 10° NNE
Cosmos 1825 3.1 21:14:58 10° SSE 21:18:16 28° E 21:21:33 10° NNE
Cosmos 1939 Rocket 3.9 21:15:56 11° SE 21:19:05 27° ENE 21:22:26 10° NNE
Cosmos 2278 Rocket 2.3 21:13:54 10° S 21:19:23 54° ESE 21:24:54 10° NNE
GPS 2-05 Rocket1 2.9 21:16:34 10° W 21:20:18 84° S 21:23:59 10° E
COSMOS 2406 3.5 21:14:50 10° NNW 21:20:33 69° WSW 21:26:11 10° S
FENGYUN 3A 3.9 21:16:03 10° S 21:21:25 73° WSW 21:26:49 10° NNW
Cosmos 1674 Rocket 3.5 21:20:17 10° N 21:24:44 73° E 21:29:08 10° SSE
SL-27 R/B 2.8 21:21:19 10° NNW 21:24:56 69° WSW 21:28:27 10° S
Cosmos 2074 Rocket 4.4 21:18:46 10° SSW 21:25:01 71° W 21:31:17 10° N
Cosmos 1844 3.8 21:19:44 10° SSW 21:25:30 85° WNW 21:31:20 10° NNE
ALOS 3.0 21:21:59 10° S 21:26:34 56° W 21:31:10 10° NNW
Okean 2 Rocket 4.0 21:27:35 12° SSE 21:31:03 28° E 21:34:49 10° NNE
SJ-11-01 4.4 21:28:54 10° SSE 21:33:35 64° ENE 21:38:17 10° N
Envisat 3.5 21:31:59 14° SE 21:36:06 44° ENE 21:40:55 10° N
SEDSat Delta rocket 3.7 21:32:39 10° SW 21:36:42 32° SSE 21:39:01 19° ESE
USA 186 3.2 21:33:50 10° SSW 21:36:46 36° W 21:39:50 10° NNW
OAO 1 Rocket 4.5 21:31:46 10° WSW 21:37:01 63° SSE 21:42:05 11° E
Cosmos 1782 Rocket 4.0 21:34:35 10° SSE 21:38:47 43° E 21:43:03 10° NNE
Cosmos 2082 Rocket 3.7 21:37:42 10° N 21:41:57 21° ENE 21:44:56 14° E
Intercosmos 25 4.2 21:43:01 22° ESE 21:43:46 24° E 21:46:25 10° NE
OAO 3 Rocket 3.4 21:39:17 10° WSW 21:44:07 54° SSE 21:48:02 15° E
Sich 1 Rocket 4.0 21:39:45 10° SSW 21:44:18 69° W 21:48:53 10° N
Nadezhda 3 Rocket 4.1 21:39:28 10° N 21:45:49 67° E 21:51:47 12° SSE
Cosmos 1420 Rocket 4.0 21:42:44 10° S 21:47:53 61° ESE 21:53:02 10° NNE
ERS-1 Rocket 2.9 21:42:56 10° SSE 21:47:56 87° ENE 21:52:58 10° NNW
APEX 3.5 21:44:57 10° S 21:48:32 54° ESE 21:53:13 10° NNE
COSMOS 2487 2.6 21:49:31 10° N 21:53:05 59° ENE 21:54:41 29° SE
Cosmos 1975 Rocket 3.3 21:52:15 10° N 21:56:27 48° E 21:58:28 27° SE
Cosmos 2297 3.8 21:51:20 10° S 21:56:51 55° ESE 22:02:27 10° NNE
Cosmos 407 Rocket 4.1 21:51:52 10° NNW 21:57:03 55° WSW 22:02:12 10° S
Cosmos 1140 Rocket 3.7 21:52:23 10° N 21:57:24 51° ENE 22:00:06 26° SE
Cosmos 1908 Rocket 4.4 21:59:02 10° SSW 22:03:19 52° W 22:07:40 10° N
EO 1 Delta rocket 4.0 21:58:25 10° N 22:04:10 89° W 22:08:56 10° S
ISS -0.3 22:03:18 10° WNW 22:05:35 17° NNW 22:07:52 10° NNE
Cosmos 1378 Rocket 3.6 22:01:28 10° N 22:05:47 78° W 22:08:46 20° S
MetOp-B 4.4 22:04:33 27° SE 22:07:14 51° ENE 22:12:25 10° N
CZ-4B R/B 4.0 22:03:50 10° NNE 22:08:17 35° E 22:09:18 31° SE
Cosmos 1606 3.6 22:05:16 10° NNW 22:09:04 49° W 22:12:07 15° SSW
Cosmos 1862 4.4 22:06:24 10° SSW 22:10:19 47° W 22:14:16 10° N
Cosmos 2341 Rocket 4.1 22:05:41 10° S 22:11:59 79° W 22:18:17 10° N
H-2A R/B 3.8 22:11:12 17° E 22:12:24 18° ENE 22:15:50 10° NNE
Cosmos 1238 Rocket 2.9 22:11:24 10° NNW 22:14:53 69° W 22:17:07 25° S
Nimbus 7 Rocket 4.5 22:09:15 10° NNE 22:15:12 82° WNW 22:21:13 10° SSW
Cosmos 1184 Rocket 3.9 22:13:02 10° SSW 22:16:12 44° W 22:19:25 10° N
SPOT 5 3.0 22:14:02 28° SSE 22:16:55 79° ENE 22:22:18 10° N
SL-8 Rocket 3.9 22:13:59 18° S 22:18:42 68° E 22:24:54 10° NNE
Abrixas 2.8 22:21:27 10° WSW 22:24:28 65° NW 22:24:56 54° NNE
USA 245 3.6 22:25:48 43° ENE 22:25:48 43° ENE 22:29:36 10° N
SPOT 1/Viking Rocket 3.8 22:26:12 39° ESE 22:27:44 54° ENE 22:32:49 10° N
Lacrosse 5 3.5 22:31:52 19° ENE 22:31:52 19° ENE 22:33:29 10° ENE
ARGOS 3.5 22:27:48 38° ESE 22:29:16 49° ENE 22:34:25 10° N
Cosmos 1242 Rocket 2.6 22:27:08 10° NNW 22:30:49 75° W 22:31:23 59° SSW
Elektron 3 4.3 22:28:14 10° NNW 22:31:19 73° ENE 22:31:54 59° ESE
Timation 2 Rocket 3.8 22:25:40 10° NNW 22:31:39 89° ENE 22:34:07 38° SSE
H-2A R/B 2.9 22:29:41 24° SSW 22:31:55 45° W 22:35:59 10° NNW
YAOGAN 6 2.3 22:33:24 86° E 22:33:24 86° E 22:36:56 10° N
Cosmos 2151 Rocket 3.5 22:36:40 58° SSE 22:37:25 72° E 22:41:56 10° NNE
Cosmos 1850 Rocket 4.0 22:37:52 10° NNW 22:43:12 78° WSW 22:44:48 46° S
USA 229 DEB 3.9 22:40:46 10° NNW 22:47:50 63° NE 22:50:15 42° ESE
USA 229 3.9 22:40:52 10° NNW 22:47:56 63° NE 22:50:21 42° ESE
Cosmos 864 Rocket 4.3 22:45:50 39° S 22:48:17 79° E 22:54:27 10° N
Meteor 1-20 Rocket 4.2 22:50:14 55° SE 22:50:53 59° E 22:56:19 10° NNE
Timation 1 Rocket 4.2 22:48:55 29° SSW 22:52:07 81° ESE 22:58:08 10° NNE
Okean 1 Rocket 4.4 22:56:17 28° NE 22:56:17 28° NE 22:58:51 10° NNE
GPS 2-05 Rocket1 4.3 22:54:56 10° W 22:57:14 35° W 22:57:14 35° W
Cosmos 2366 rocket 4.1 22:57:18 33° SSW 23:00:20 78° W 23:06:42 10° N
Cosmos 1833 Rocket 2.5 22:54:57 10° NNW 23:00:35 75° ENE 23:01:16 66° ESE
Cosmos 1331 Rocket 3.8 23:05:38 81° SSE 23:05:52 85° ESE 23:11:02 10° NNE
Meteor 1-25 Rocket 4.3 23:06:56 49° SSW 23:08:37 80° W 23:14:28 10° N
CZ-4 R/B 4.0 23:06:19 10° N 23:10:56 67° WNW 23:11:24 62° WSW
Cosmos 1110 Rocket 4.2 23:13:25 53° SW 23:14:31 69° WNW 23:19:43 10° NNE
DMSP B5D2-2 4.2 23:16:03 10° NNE 23:20:37 64° NE 23:20:37 64° NE
SL-08 RB Rocket 4.2 23:21:37 55° W 23:21:37 55° W 23:25:58 10° NNW
Landsat 7 4.0 23:23:53 69° NW 23:23:53 69° NW 23:28:08 10° NNW
Cosmos 2082 Rocket 2.6 23:20:49 10° NNW 23:26:18 50° WSW 23:26:48 49° SW
OAO 3 Rocket 4.1 23:22:37 10° W 23:25:52 41° W 23:25:52 41° W
Cosmos 1812 4.3 23:24:56 10° NNW 23:27:15 34° NNW 23:27:15 34° NNW
NOSS 3-1 (C) 4.4 23:27:49 10° NNW 23:35:18 54° NE 23:37:00 47° E
Terra 2.4 23:40:06 55° NNW 23:40:06 55° NNW 23:43:50 10° NNW
BREEZE-M TANK 4.2 23:33:56 10° WNW 23:41:16 32° N 23:42:07 29° NNE
USA 234 3.1 23:36:50 10° NE 23:43:24 84° SE 23:43:56 76° SSW
Cosmos 1486 Rocket 4.4 23:40:18 10° NNW 23:44:40 60° N 23:44:40 60° N
Meteor 1-13 Rocket 4.4 23:43:58 10° N 23:49:25 76° N 23:49:25 76° N
H-2A R/B 2.7 23:51:51 52° W 23:51:51 52° W 23:56:33 10° NNW
Lacrosse 5 rocket 3.9 23:57:31 17° N 23:57:31 17° N 23:58:48 10° NNE
